COSMOS 540

导读

COSMOS 540(宇宙540)是苏联(CIS)于1972年12月25日发射的无人卫星,属于苏联“宇宙”系列卫星任务。该系列卫星自1962年起持续发射,涵盖科学研究、航天技术验证、军事侦察等多元任务,部分任务失败的探测器也会纳入“宇宙”编号。作为冷战时期苏联航天活动的产物,它体现了当时苏联在空间技术领域的探索,这类卫星为后续航天技术发展积累了宝贵的轨道与空间环境数据。

基本信息
目录编号:
6323
目录名称:
COSMOS 540
国际标识:
1972-104A
轨道中心:
EARTH
卫星名称:
COSMOS 540
卫星全名:
--
卫星状态:
在轨 (已飞行19621 天)
发射日期:
1972-12-25 UTC
国别 :
俄罗斯(独联体) (CIS)
星等 :
--
该卫星已列入 空间交会检测服务 Space Conjunction Data Service (SCDS) ,当前飞行风险评估等级: 无高风险
轨道信息
数据来源 国际轨道数据 AOE轨道数据
星历时间 2026-09-14T10:36:44+0800
6小时前
查看轨道信息
2026-09-13T00:00:00+0800
1天前
查看轨道信息
半长轴 7144.806km 7144.807km
偏心率 0.0018801 0.0018817
轨道倾角 74.080° 74.080°
近地点辐角 241.752° 244.410°
升交点赤经 296.464° 299.110°
平近点角 118.174° 215.139°
近地点 753.236km 753.225km
远地点 780.102km 780.115km
周期 100.172分钟 100.172分钟
每日圈数 14.375308 14.375305
详细信息
使用方式:
暂无
2D轨道图
3D轨道图
轨道高度分析图
轨道倾角分析图
轨道综合分析图
查看轨道综合分析图
交会数据列表
事件ID 空间交会对象 最接近时刻(TCA) 交会距离 交会风险概率(CRP) 交会风险指数(CRI) 操作
CDM_260908-125700-632303-217824
2026-09-08T
12:57:51+0000
2.941 km
极远距离
6.143633E-7 极低风险 0.31
与全量物体交会距离演化趋势 订阅飞行安全评估服务
与全量物体交会风险概率演化趋势 订阅飞行安全评估服务